Location: Newark
(39.0622°N, 106.5590°E)
Time: 02:35:21
(UTC+00:00)

Courier 1B - Pass Details

Date: 25 January 2020
Orbit: 962 x 1209 km, 28.3° (Epoch: 25 February)

Event Time Altitude Azimuth Distance (km) Brightness Sun altitude
Rises 21:11:08 0° 250° (WSW) 3,897 - -33.9°
Reaches altitude 10° 21:14:03 10° 242° (WSW) 2,978 - -33.3°
Exits shadow 21:20:25 37° 183° (S) 1,727 8.7 -32.1°
Maximum altitude 21:20:41 37° 178° (S) 1,727 8.7 -32.0°
Drops below altitude 10° 21:27:36 10° 115° (ESE) 3,113 10.9 -30.7°
Sets 21:30:43 0° 107° (ESE) 4,094 11.8 -30.1°
